Location: Sweet Grass
(48.9965°N, 111.9649°W)
Time: 08:10:44
(UTC+00:00)

SPROUT - Pass Details

Date: 02 April 2023
Orbit: 558 x 566 km, 98.0° (Epoch: 28 May)

Event Time Altitude Azimuth Distance (km) Brightness Sun altitude
Exits shadow 07:15:59 11° 29° (NNE) 1,840 ? -36.0°
Drops below altitude 10° 07:16:15 10° 26° (NNE) 1,898 ? -36.0°
Enters shadow 08:18:03 -56° 165° (SSE) 11,257 ? -35.2°
